This is the latest recevied weather packets stored in our database for station/object YB3RDW-13. If no packets are shown the sender has not sent any weather packets the latest 1 day(s).
| Time | Temp. | Humidity | Pressure | Rain* | Wind** | Luminosity | Snow |
|---|---|---|---|---|---|---|---|
| 1778060817 | 31.67° C | 61% | 1009 hPa | 0 mm | 2.24 m/s, 262° | 29 W/m² | - |
| 1778060518 | 31.67° C | 61% | 1009 hPa | 0 mm | 1.79 m/s, 302° | 32 W/m² | - |
| 1778060217 | 31.67° C | 61% | 1009 hPa | 0 mm | 2.68 m/s, 297° | 38 W/m² | - |
| 1778059917 | 32.22° C | 58% | 1009 hPa | 0 mm | 2.68 m/s, 296° | 43 W/m² | - |
| 1778059618 | 32.22° C | 58% | 1009 hPa | 0 mm | 1.34 m/s, 237° | 51 W/m² | - |
| 1778059317 | 32.22° C | 57% | 1009 hPa | 0 mm | 1.79 m/s, 266° | 59 W/m² | - |
| 1778059017 | 32.22° C | 57% | 1009 hPa | 0 mm | 4.02 m/s, 313° | 65 W/m² | - |
| 1778058717 | 32.22° C | 57% | 1009 hPa | 0 mm | 3.13 m/s, 265° | 73 W/m² | - |
| 1778058420 | 32.22° C | 57% | 1009 hPa | 0 mm | 2.24 m/s, 274° | 78 W/m² | - |
| 1778058118 | 32.78° C | 55% | 1009 hPa | 0 mm | 2.68 m/s, 234° | 89 W/m² | - |
| 1778057817 | 32.78° C | 57% | 1009 hPa | 0 mm | 2.24 m/s, 291° | 87 W/m² | - |
| 1778057517 | 32.78° C | 57% | 1009 hPa | 0 mm | 2.24 m/s, 255° | 82 W/m² | - |
| 1778057218 | 32.78° C | 57% | 1009 hPa | 0 mm | 2.24 m/s, 287° | 120 W/m² | - |
| 1778056917 | 32.78° C | 55% | 1009 hPa | 0 mm | 4.02 m/s, 313° | 137 W/m² | - |
| 1778056618 | 32.78° C | 55% | 1009 hPa | 0 mm | 3.13 m/s, 299° | 151 W/m² | - |
| 1778056317 | 32.78° C | 57% | 1009 hPa | 0 mm | 2.24 m/s, 310° | 162 W/m² | - |
| 1778056017 | 32.78° C | 57% | 1009 hPa | 0 mm | 3.13 m/s, 323° | 178 W/m² | - |
| 1778055717 | 32.78° C | 57% | 1009 hPa | 0 mm | 3.58 m/s, 269° | 192 W/m² | - |
| 1778055418 | 32.78° C | 57% | 1009 hPa | 0 mm | 3.13 m/s, 220° | 207 W/m² | - |
| 1778055117 | 32.78° C | 57% | 1009 hPa | 0 mm | 3.13 m/s, 293° | 207 W/m² | - |
| 1778054818 | 32.78° C | 56% | 1009 hPa | 0 mm | 3.13 m/s, 275° | 221 W/m² | - |
| 1778054517 | 32.78° C | 58% | 1009 hPa | 0 mm | 3.58 m/s, 271° | 240 W/m² | - |
| 1778054217 | 32.78° C | 56% | 1009 hPa | 0 mm | 3.58 m/s, 277° | 255 W/m² | - |
| 1778053918 | 32.78° C | 57% | 1009 hPa | 0 mm | 4.02 m/s, 272° | 276 W/m² | - |
| 1778053617 | 32.78° C | 55% | 1009 hPa | 0 mm | 3.13 m/s, 321° | 285 W/m² | - |
* Rain latest hour (hover to see other rain measurements)
** Current wind speed in m/s (hover to see current wind gust speed)